User: anonymous   Login
Location: Unspecified
(0.0000°N, 0.0000°E)
Time: 00:58:54
(UTC+00:00)
Language:

STARLINK-31871 - Orbit

View from above orbital plane
View from above orbital plane
View from above satellite
View from above satellite

Ground track
Ground track

The orbit is defined by the following mean orbital elements,

1 59673U          26145.51553323 +.00000000 +00000-0 +51988-4 0 00003
2 59673  43.0005 327.8339 0001941 264.0289  96.0341 15.27578272    04
Epoch (UTC): 25 May 2026 12:22:22
Eccentricity: 0.0001941
inclination: 43.0005°
perigee height: 482 km
apogee height: 484 km
right ascension of ascending node: 327.8339°
argument of perigee: 264.0289°
revolutions per day: 15.27578272
mean anomaly at epoch: 96.0341°

The dashed part of the orbit path shows where the satellite is in the earth's shadow,  

DLR